When you browse on this site, cookies collect data to enhance your experience and personalize the content and advertising you see.
Visit our Privacy Policy to learn more. By continuing to use the site, you agree to this use of cookies and data.
  • In Lithuania
  • List of Countries
  • For 7 days
  • Water Temperature
  • Satellite Maps
  • Weather Map
  • Weather Widgets
  • user-avatar
    Login

    Hourly Weather Tirana

    Today, 27 May, Monday

    Time Temperature Precipitation Wind Pressure Humidity
    00:00 +21°C° 0 mm 1 mps 752 mmHg 73%
    01:00 +21°C° 0 mm 1 mps 752 mmHg 74%
    02:00 +21°C° 0.3 mm 1 mps 752 mmHg 76%
    03:00 +21°C° 0.3 mm 1 mps 751 mmHg 77%
    04:00 +20°C° 0.3 mm 1 mps 751 mmHg 79%
    05:00 +21°C° 0.7 mm 1 mps 751 mmHg 80%
    06:00 +21°C° 0.7 mm 1 mps 751 mmHg 81%
    07:00 +21°C° 0.7 mm 1 mps 751 mmHg 82%
    08:00 +21°C° 1 mm 1 mps 751 mmHg 81%
    09:00 +22°C° 1 mm 1 mps 751 mmHg 80%
    10:00 +22°C° 1 mm 1 mps 751 mmHg 79%
    11:00 +24°C° 0.1 mm 1 mps 751 mmHg 71%
    12:00 +25°C° 0.1 mm 2 mps 751 mmHg 63%
    13:00 +27°C° 0.1 mm 2 mps 750 mmHg 55%
    14:00 +26°C° 0 mm 2 mps 750 mmHg 59%
    15:00 +25°C° 0 mm 2 mps 750 mmHg 63%
    16:00 +24°C° 0 mm 1 mps 749 mmHg 68%
    17:00 +23°C° 0 mm 2 mps 749 mmHg 72%
    18:00 +21°C° 0 mm 2 mps 749 mmHg 75%
    19:00 +20°C° 0 mm 3 mps 749 mmHg 79%
    20:00 +19°C° 0.1 mm 3 mps 749 mmHg 81%
    21:00 +19°C° 0.1 mm 4 mps 749 mmHg 82%
    22:00 +18°C° 0.1 mm 4 mps 749 mmHg 83%
    23:00 +18°C° 0.2 mm 4 mps 749 mmHg 84%

    Tomorrow, 28 May, Tuesday

    Time Temperature Precipitation Wind Pressure Humidity
    00:00 +17°C° 0.2 mm 5 mps 749 mmHg 84%
    01:00 +16°C° 0.2 mm 5 mps 749 mmHg 84%
    02:00 +16°C° 0.5 mm 5 mps 749 mmHg 86%
    03:00 +16°C° 0.5 mm 5 mps 749 mmHg 87%
    04:00 +15°C° 0.5 mm 6 mps 749 mmHg 88%
    05:00 +17°C° 0.5 mm 6 mps 749 mmHg 83%
    06:00 +18°C° 0.5 mm 7 mps 749 mmHg 78%
    07:00 +21°C° 0.5 mm 7 mps 749 mmHg 73%
    08:00 +21°C° 0.3 mm 8 mps 749 mmHg 72%
    09:00 +21°C° 0.3 mm 8 mps 749 mmHg 71%
    10:00 +21°C° 0.3 mm 8 mps 749 mmHg 70%
    11:00 +22°C° 0.3 mm 8 mps 749 mmHg 68%
    12:00 +23°C° 0.3 mm 9 mps 749 mmHg 66%
    13:00 +23°C° 0.3 mm 9 mps 749 mmHg 64%
    14:00 +23°C° 0.4 mm 9 mps 749 mmHg 66%
    15:00 +22°C° 0.4 mm 9 mps 749 mmHg 69%
    16:00 +22°C° 0.4 mm 9 mps 749 mmHg 71%
    17:00 +21°C° 0.1 mm 9 mps 749 mmHg 76%
    18:00 +20°C° 0.1 mm 8 mps 750 mmHg 81%
    19:00 +17°C° 0.1 mm 8 mps 750 mmHg 86%
    20:00 +17°C° 0.2 mm 7 mps 750 mmHg 87%
    21:00 +17°C° 0.2 mm 7 mps 751 mmHg 87%
    22:00 +16°C° 0.2 mm 6 mps 751 mmHg 88%
    23:00 +16°C° 0.2 mm 6 mps 751 mmHg 87%

    Day after tomorrow, 29 May, Wednesday

    Time Temperature Precipitation Wind Pressure Humidity
    00:00 +16°C° 0.2 mm 6 mps 751 mmHg 86%
    01:00 +16°C° 0.2 mm 6 mps 751 mmHg 85%
    02:00 +16°C° 0 mm 5 mps 751 mmHg 85%
    03:00 +15°C° 0 mm 5 mps 751 mmHg 84%
    04:00 +15°C° 0 mm 5 mps 751 mmHg 84%
    05:00 +16°C° 0 mm 5 mps 751 mmHg 80%
    06:00 +19°C° 0 mm 6 mps 751 mmHg 76%
    07:00 +20°C° 0 mm 6 mps 752 mmHg 72%
    08:00 +21°C° 0.4 mm 7 mps 752 mmHg 69%
    09:00 +22°C° 0.4 mm 7 mps 752 mmHg 66%
    10:00 +23°C° 0.4 mm 8 mps 752 mmHg 63%
    11:00 +23°C° 0.2 mm 8 mps 752 mmHg 63%
    12:00 +23°C° 0.2 mm 8 mps 752 mmHg 63%
    13:00 +23°C° 0.2 mm 8 mps 752 mmHg 63%
    14:00 +23°C° 0.4 mm 7 mps 752 mmHg 65%
    15:00 +22°C° 0.4 mm 7 mps 752 mmHg 67%
    16:00 +22°C° 0.4 mm 6 mps 752 mmHg 69%
    17:00 +21°C° 0.6 mm 5 mps 752 mmHg 74%
    18:00 +19°C° 0.6 mm 5 mps 752 mmHg 79%
    19:00 +17°C° 0.6 mm 5 mps 753 mmHg 84%
    20:00 +17°C° 0.7 mm 5 mps 753 mmHg 84%
    21:00 +16°C° 0.7 mm 5 mps 753 mmHg 84%
    22:00 +16°C° 0.7 mm 5 mps 754 mmHg 84%
    23:00 +16°C° 0.5 mm 5 mps 754 mmHg 83%

    30 May, Thursday

    Time Temperature Precipitation Wind Pressure Humidity
    00:00 +16°C° 0.5 mm 5 mps 754 mmHg 83%
    01:00 +17°C° 0.5 mm 4 mps 753 mmHg 83%
    02:00 +17°C° 0 mm 4 mps 753 mmHg 83%
    03:00 +15°C° 0 mm 4 mps 753 mmHg 83%
    04:00 +15°C° 0 mm 4 mps 753 mmHg 83%
    05:00 +17°C° 0.4 mm 3 mps 753 mmHg 78%
    06:00 +19°C° 0.4 mm 3 mps 754 mmHg 73%
    07:00 +20°C° 0.4 mm 2 mps 754 mmHg 68%
    08:00 +21°C° 0.1 mm 3 mps 754 mmHg 64%
    09:00 +21°C° 0.1 mm 3 mps 754 mmHg 59%
    10:00 +22°C° 0.1 mm 3 mps 754 mmHg 54%
    11:00 +22°C° 0 mm 4 mps 754 mmHg 55%
    12:00 +22°C° 0 mm 4 mps 754 mmHg 56%
    13:00 +23°C° 0 mm 4 mps 753 mmHg 57%
    14:00 +22°C° 0 mm 4 mps 753 mmHg 58%
    15:00 +22°C° 0 mm 3 mps 753 mmHg 59%
    16:00 +21°C° 0 mm 3 mps 753 mmHg 60%
    17:00 +20°C° 0.1 mm 2 mps 754 mmHg 67%
    18:00 +18°C° 0.1 mm 2 mps 754 mmHg 75%
    19:00 +18°C° 0.1 mm 1 mps 754 mmHg 82%
    20:00 +16°C° 0 mm 1 mps 754 mmHg 84%
    21:00 +16°C° 0 mm 1 mps 754 mmHg 86%
    22:00 +15°C° 0 mm 1 mps 755 mmHg 88%
    23:00 +15°C° 0.5 mm 1 mps 754 mmHg 89%

    31 May, Friday

    Time Temperature Precipitation Wind Pressure Humidity
    00:00 +15°C° 0.5 mm 1 mps 754 mmHg 89%
    01:00 +15°C° 0.5 mm 1 mps 754 mmHg 90%
    02:00 +14°C° 0.2 mm 1 mps 754 mmHg 90%
    03:00 +14°C° 0.2 mm 2 mps 753 mmHg 90%
    04:00 +14°C° 0.2 mm 2 mps 753 mmHg 90%
    05:00 +15°C° 0 mm 2 mps 753 mmHg 84%
    06:00 +18°C° 0 mm 1 mps 753 mmHg 78%
    07:00 +19°C° 0 mm 1 mps 753 mmHg 72%
    08:00 +20°C° 0 mm 1 mps 753 mmHg 69%
    09:00 +20°C° 0 mm 2 mps 753 mmHg 66%
    10:00 +21°C° 0 mm 2 mps 753 mmHg 62%
    11:00 +22°C° 0 mm 3 mps 753 mmHg 61%
    12:00 +22°C° 0 mm 3 mps 752 mmHg 60%
    13:00 +22°C° 0 mm 4 mps 752 mmHg 59%
    14:00 +22°C° 0 mm 4 mps 752 mmHg 59%
    15:00 +22°C° 0 mm 4 mps 752 mmHg 59%
    16:00 +22°C° 0 mm 4 mps 752 mmHg 60%
    17:00 +20°C° 0 mm 4 mps 752 mmHg 67%
    18:00 +19°C° 0 mm 3 mps 752 mmHg 75%
    19:00 +17°C° 0 mm 3 mps 752 mmHg 83%
    20:00 +17°C° 0 mm 2 mps 752 mmHg 84%
    21:00 +18°C° 0 mm 1 mps 752 mmHg 86%
    22:00 +15°C° 0 mm 0 mps 753 mmHg 87%
    23:00 +16°C° 0 mm 1 mps 752 mmHg 88%

    1 June, Saturday

    Time Temperature Precipitation Wind Pressure Humidity
    00:00 +15°C° 0 mm 2 mps 752 mmHg 89%
    01:00 +14°C° 0 mm 3 mps 752 mmHg 90%
    02:00 +14°C° 0 mm 3 mps 752 mmHg 89%
    03:00 +13°C° 0 mm 3 mps 752 mmHg 87%
    04:00 +13°C° 0 mm 3 mps 752 mmHg 86%
    05:00 +16°C° 0 mm 3 mps 752 mmHg 80%
    06:00 +17°C° 0 mm 2 mps 752 mmHg 73%
    07:00 +20°C° 0 mm 1 mps 752 mmHg 67%
    08:00 +20°C° 0 mm 2 mps 752 mmHg 64%
    09:00 +21°C° 0 mm 3 mps 752 mmHg 61%
    10:00 +24°C° 0 mm 3 mps 752 mmHg 58%
    11:00 +23°C° 0 mm 4 mps 751 mmHg 58%
    12:00 +23°C° 0 mm 5 mps 751 mmHg 59%
    13:00 +23°C° 0 mm 6 mps 751 mmHg 59%
    14:00 +23°C° 0 mm 6 mps 751 mmHg 60%
    15:00 +22°C° 0 mm 5 mps 751 mmHg 61%
    16:00 +22°C° 0 mm 4 mps 751 mmHg 63%
    17:00 +21°C° 0 mm 3 mps 751 mmHg 69%
    18:00 +19°C° 0 mm 2 mps 751 mmHg 76%
    19:00 +19°C° 0 mm 1 mps 751 mmHg 83%
    20:00 +18°C° 0 mm 1 mps 752 mmHg 84%
    21:00 +17°C° 0 mm 2 mps 752 mmHg 85%
    22:00 +16°C° 0 mm 3 mps 752 mmHg 86%
    23:00 +16°C° 0 mm 2 mps 752 mmHg 85%
    Show more